This is the latest recevied weather packets stored in our database for station/object W4SNA-4. If no packets are shown the sender has not sent any weather packets the latest 10 day(s).
| Time | Temp. | Humidity | Pressure | Rain* | Wind** | Luminosity | Snow |
|---|---|---|---|---|---|---|---|
| 1787857183 | 27.78° C | 72% | 1010.6 hPa | 0 mm | - | - | - |
| 1787856885 | 27.78° C | 74% | 1010.6 hPa | 0 mm | - | - | - |
| 1787856581 | 27.78° C | 71% | 1010.6 hPa | 0 mm | - | - | - |
| 1787856296 | 27.78° C | 73% | 1010.6 hPa | 0 mm | - | - | - |
| 1787855981 | 27.78° C | 73% | 1010.7 hPa | 0 mm | - | - | - |
| 1787855691 | 27.22° C | 77% | 1010.7 hPa | 0 mm | - | - | - |
| 1787855381 | 27.22° C | 76% | 1010.7 hPa | 0 mm | - | - | - |
| 1787855095 | 27.22° C | 76% | 1011.1 hPa | 0 mm | - | - | - |
| 1787854782 | 27.22° C | 76% | 1011.1 hPa | 0 mm | - | - | - |
| 1787854487 | 27.22° C | 78% | 1011.1 hPa | 0 mm | - | - | - |
| 1787854181 | 27.22° C | 77% | 1011.3 hPa | 0 mm | - | - | - |
| 1787853887 | 26.67° C | 77% | 1011.3 hPa | 0 mm | - | - | - |
| 1787853583 | 26.67° C | 79% | 1011.3 hPa | 0 mm | - | - | - |
| 1787853292 | 26.67° C | 78% | 1011.4 hPa | 0 mm | - | - | - |
| 1787852981 | 26.67° C | 80% | 1011.4 hPa | 0 mm | - | - | - |
| 1787852689 | 26.11° C | 80% | 1011.4 hPa | 0 mm | - | - | - |
| 1787852382 | 26.11° C | 79% | 1011.9 hPa | 0 mm | - | - | - |
| 1787852086 | 26.11° C | 84% | 1011.9 hPa | 0 mm | - | - | - |
| 1787851781 | 26.11° C | 83% | 1011.9 hPa | 0 mm | - | - | - |
| 1787851491 | 26.11° C | 82% | 1012 hPa | 0 mm | - | - | - |
| 1787851181 | 26.67° C | 81% | 1012 hPa | 0 mm | - | - | - |
| 1787850888 | 26.67° C | 82% | 1012 hPa | 0 mm | - | - | - |
| 1787850592 | 27.22° C | 81% | 1011.9 hPa | 0 mm | - | - | - |
| 1787850287 | 27.22° C | 80% | 1011.9 hPa | 0 mm | - | - | - |
| 1787849985 | 27.22° C | 80% | 1011.9 hPa | 0 mm | - | - | - |
* Rain latest hour (hover to see other rain measurements)
** Current wind speed in m/s (hover to see current wind gust speed)